Wind_Speed
3 3 3 3 3 4 4 4 4 4 4 4 5 6 6 6 6 6 6 6 7 6 6 6 5 5 6 6 5 5 5 4 4 4 4 4 4 4 4 4 4 4 5 5 5 6 6 5 6
3 3 3 3 4 4 5 5 5 5 5 5 5 5 5 6 5 5 6 6 6 6 6 6 6 6 6 6 6 6 6 5 5 5 6 5 6 5 5 5 5 5 6 6 6 6 5 6 6
2 3 3 4 4 5 5 5 5 6 6 6 6 6 6 6 5 5 6 6 6 6 6 6 7 7 7 7 7 7 7 7 7 6 6 6 6 6 6 6 7 7 7 6 6 6 6 6 6
3 2 3 4 4 5 5 6 6 5 6 6 7 7 7 6 6 6 5 6 6 6 6 6 6 7 7 8 8 8 7 7 8 7 7 7 7 7 7 7 7 7 7 7 7 8 8 8 7
3 3 3 4 5 5 5 6 6 6 6 6 7 7 7 7 7 7 6 6 7 7 7 7 7 7 8 8 9 9 8 8 8 8 8 8 9 8 8 8 8 8 8 8 8 9 9 9 9
4 4 4 4 5 5 6 6 6 6 6 6 7 7 7 7 7 7 7 7 7 7 7 7 7 7 7 8 9 9 9 9 9 9 9 9 9 9 9 10 10 10 10 10 9 9 9 9 9
4 4 5 5 5 6 6 6 6 6 6 6 7 7 7 7 7 7 7 7 8 8 8 8 8 8 8 8 9 9 9 9 10 9 9 10 10 10 10 10 11 11 11 11 10 10 10 10 10
4 5 5 5 5 6 6 6 6 6 6 6 7 7 7 7 7 7 7 8 8 8 8 8 9 9 9 9 9 9 10 10 10 10 10 11 11 11 11 11 11 12 11 12 12 11 11 11 11
5 5 5 6 6 6 6 6 6 7 7 7 7 7 7 7 8 8 8 8 8 7 7 8 8 8 9 9 9 10 10 10 10 10 10 10 11 11 11 11 11 12 12 12 12 11 11 12 12
6 5 5 6 6 6 6 6 6 7 7 8 8 8 8 8 8 8 8 8 7 7 7 7 8 8 8 9 9 9 9 9 10 10 10 10 10 10 11 11 12 12 13 12 12 12 12 12 13
6 6 6 6 6 6 6 6 7 7 7 8 8 9 9 8 8 8 8 8 8 8 8 8 8 8 9 9 9 9 9 9 10 10 10 10 10 11 11 11 11 12 12 12 12 12 12 13 13
7 7 7 7 7 6 6 6 7 8 8 8 8 9 9 9 9 9 9 9 9 8 8 9 9 9 9 9 9 10 10 10 10 10 10 10 10 10 11 11 11 11 12 12 13 13 14 13 14
7 7 7 7 7 6 6 6 7 8 8 8 8 9 9 9 9 9 9 8 8 9 9 9 9 9 9 9 10 10 11 11 11 11 11 11 10 10 10 10 10 10 11 12 13 14 15 15 15
7 7 7 7 7 7 6 7 7 8 8 8 8 9 8 8 9 9 9 9 8 9 9 8 9 9 9 9 9 10 10 11 11 11 10 10 10 10 11 11 10 11 11 12 13 14 15 15 16
8 8 8 8 8 8 8 8 8 8 8 8 9 9 8 8 9 9 9 9 9 9 9 9 10 10 10 10 10 10 10 10 11 10 10 11 11 11 11 11 12 12 13 13 14 14 15 16 16
8 8 9 9 9 9 9 9 9 9 9 9 9 9 9 8 9 10 10 10 10 10 11 10 11 11 10 10 10 11 11 11 11 12 12 12 12 12 12 12 13 13 14 14 14 15 16 17 17
8 8 9 9 9 9 9 9 10 10 10 10 10 10 9 9 10 10 10 11 11 11 11 11 12 12 11 11 11 11 12 13 13 13 13 14 14 14 14 14 14 14 15 15 15 16 16 17 17
9 9 9 9 9 9 9 10 11 11 11 11 11 11 11 10 10 10 10 10 11 11 12 12 13 13 13 13 14 14 14 14 15 15 15 15 15 15 15 15 15 15 15 16 16 17 17 17 17
9 9 9 9 10 10 10 10 11 11 11 11 12 12 12 12 11 10 11 11 11 11 12 13 14 14 14 15 15 16 16 16 16 16 16 16 16 16 16 16 16 16 16 16 16 17 17 17 17
9 9 9 9 10 11 10 10 11 12 12 12 13 13 12 12 12 12 12 12 12 12 12 13 14 15 15 16 17 17 17 17 17 17 17 17 17 17 17 17 17 17 17 17 17 17 17 17 16
9 9 10 10 10 11 10 10 11 12 12 12 13 13 13 12 12 12 12 12 12 12 13 14 15 16 17 18 18 18 18 17 17 18 17 17 17 17 18 18 18 18 18 17 17 17 17 17 17
10 10 10 10 10 11 11 11 11 12 12 12 12 13 13 13 13 13 13 13 13 13 13 14 15 16 18 18 18 17 17 18 18 17 18 18 18 18 18 18 18 18 18 18 18 17 17 17 17
10 11 10 10 10 11 11 11 11 11 12 12 13 13 13 13 13 13 13 14 14 15 15 15 16 17 18 18 18 18 18 19 19 19 19 19 19 19 19 19 19 19 19 19 18 18 17 17 18
11 10 10 10 11 11 11 11 11 11 11 12 13 13 14 14 14 14 14 14 15 15 16 16 16 17 18 18 18 19 20 20 20 20 20 20 20 20 20 19 19 20 19 19 18 18 18 18 18
11 11 11 11 12 12 12 12 12 12 12 12 12 13 14 15 15 14 14 15 15 16 17 17 17 17 18 19 19 20 20 20 20 20 20 21 21 21 21 20 20 20 20 20 19 19 18 18 18
12 12 12 13 13 13 13 13 13 12 12 13 13 14 15 15 15 15 15 16 16 16 17 17 17 18 18 19 20 20 21 21 21 21 21 21 22 22 22 21 22 21 21 20 19 19 19 19 20
13 13 14 14 14 14 14 14 14 14 14 14 15 15 15 15 16 16 16 17 17 17 18 18 18 18 19 19 20 20 21 21 21 21 22 22 22 22 22 23 23 22 22 21 21 20 20 20 20
14 14 14 15 15 15 15 15 16 15 15 16 16 16 16 17 16 17 17 17 17 18 19 19 19 19 20 20 20 21 21 22 22 22 22 22 23 23 23 23 23 23 22 23 22 22 21 21 21
14 14 15 16 17 17 17 17 17 17 17 17 17 17 17 18 18 18 18 18 19 19 20 20 20 20 20 21 21 21 22 22 22 22 22 23 23 24 24 24 24 24 24 24 24 23 23 22 22
15 15 16 17 17 18 19 18 18 18 18 18 18 18 18 19 20 19 20 20 20 20 21 21 21 21 21 22 22 22 23 23 23 23 24 24 23 23 24 25 25 25 25 24 25 24 24 24 24
Wind_Direction
180 185 185 187 191 200 210 208 204 199 199 199 195 196 193 192 199 206 206 206 203 200 200 200 202 204 207 212 218 219 219 220 222 222 224 225 227 226 227 231 233 231 229 230 231 230 224 232 235
198 201 200 202 207 216 221 218 218 214 214 213 210 206 202 200 204 207 209 212 210 210 209 210 216 216 218 223 226 227 227 228 231 232 233 234 235 235 239 240 236 234 236 239 239 234 231 239 241
206 207 207 209 214 223 226 227 229 222 222 221 217 214 211 212 213 217 218 219 215 216 216 219 221 221 225 228 231 234 232 233 235 235 236 237 238 239 240 243 238 238 240 244 243 239 240 245 244
215 218 216 216 222 228 233 232 229 227 228 228 224 219 219 220 221 226 224 222 220 220 224 227 226 228 231 234 236 238 237 238 239 239 242 240 241 244 244 246 243 243 245 248 248 245 249 249 249
224 226 227 227 231 237 242 240 235 228 230 231 228 226 228 230 228 225 225 226 224 223 226 230 232 235 239 241 242 243 243 243 242 245 247 245 246 248 246 248 247 250 251 252 252 250 252 254 256
230 231 234 234 237 240 242 239 239 237 234 236 234 231 232 230 229 228 228 229 226 225 227 233 238 239 241 244 244 247 249 249 246 248 248 247 248 249 252 250 250 253 256 258 260 256 257 258 259
227 233 236 239 241 241 239 240 242 244 240 240 239 235 233 228 228 228 229 232 232 232 233 237 241 239 241 245 247 247 248 249 249 249 250 249 250 252 253 254 254 255 257 260 261 258 258 257 260
227 235 237 239 243 244 240 238 238 237 239 242 241 236 232 230 232 233 235 236 236 238 240 241 243 242 242 245 249 249 250 252 252 252 252 252 253 254 254 256 255 256 257 259 259 260 260 260 261
231 236 242 243 242 242 241 237 238 237 238 241 240 238 235 235 235 237 241 240 240 243 243 244 245 245 245 246 250 254 254 255 257 258 258 256 254 255 257 257 257 258 258 258 259 258 259 262 263
236 241 246 246 246 245 245 245 242 241 242 241 239 240 238 237 237 237 241 241 242 245 243 246 248 248 249 250 252 255 257 258 259 261 262 260 259 260 261 261 260 259 258 259 262 261 263 262 263
239 242 244 246 249 249 248 247 242 241 242 241 239 240 240 240 238 238 241 243 245 247 245 249 252 252 255 255 255 256 260 261 261 262 264 262 259 259 261 262 260 260 263 265 265 263 264 265 264
244 244 245 245 250 251 249 248 246 243 243 241 239 237 237 240 242 243 245 247 246 247 246 248 254 256 258 258 258 258 261 264 263 263 263 262 262 259 260 263 264 265 265 267 267 267 268 268 267
239 245 248 247 249 252 251 251 249 247 244 242 240 238 240 241 243 246 248 247 245 248 251 249 250 254 256 257 259 260 261 262 261 261 263 261 261 262 260 266 270 270 271 272 273 272 271 271 270
240 244 250 253 253 255 254 251 250 247 247 245 244 244 244 243 245 247 249 249 248 248 252 253 253 253 253 255 259 262 264 264 261 260 258 258 261 265 266 269 270 272 274 275 275 275 275 274 273
245 249 253 257 257 255 254 253 250 249 249 248 247 245 245 247 248 249 249 250 250 251 253 254 254 256 255 258 262 265 266 265 263 261 260 259 262 266 268 269 271 275 277 277 276 275 275 276 276
249 253 257 258 258 254 254 256 252 250 251 250 249 247 248 251 252 250 248 247 250 253 254 256 256 257 259 263 266 268 265 265 265 265 264 263 263 266 268 270 273 278 280 279 278 277 276 275 275
251 254 256 255 255 254 253 254 255 254 255 253 250 249 251 253 252 252 252 251 253 255 255 258 260 262 264 267 270 271 270 267 265 267 266 265 266 268 271 271 274 278 280 280 280 281 279 276 274
253 255 255 257 257 255 256 256 258 257 256 254 250 249 249 251 251 251 255 257 256 256 260 261 263 265 267 269 272 272 272 271 269 269 269 269 269 269 271 272 275 277 279 281 280 282 281 277 274
251 254 256 258 260 259 258 258 258 256 255 254 251 250 249 250 252 253 256 258 258 257 262 265 267 267 268 270 272 272 272 272 272 272 272 274 272 270 270 273 274 276 279 281 281 281 281 278 276
252 253 257 262 263 262 258 257 256 254 253 251 250 249 248 250 254 257 258 260 261 262 263 266 269 271 271 271 272 271 270 271 271 271 273 273 273 273 272 273 274 277 279 281 281 282 281 280 278
251 253 259 262 264 264 260 263 261 255 253 252 251 250 249 250 254 261 260 259 261 266 268 271 272 272 272 273 272 272 270 271 272 272 273 274 274 274 273 274 274 276 279 280 280 281 281 279 278
254 259 263 264 269 266 264 265 263 259 256 253 254 252 251 252 253 259 260 261 263 267 270 273 276 276 276 274 273 273 273 272 272 273 272 273 274 273 273 273 274 275 277 278 278 279 279 279 278
258 265 269 268 268 268 269 268 266 263 258 256 256 255 256 257 259 260 261 263 264 267 272 277 280 281 279 278 276 274 274 274 272 273 273 273 274 275 275 275 274 275 276 277 276 276 277 279 278
263 266 269 268 266 268 269 269 267 263 260 259 259 259 258 260 261 262 262 263 264 268 272 276 282 284 280 277 277 276 275 274 273 273 273 274 276 277 276 275 274 276 277 277 276 277 277 278 277
265 264 266 267 266 267 266 269 269 267 263 261 260 259 259 262 260 261 262 264 265 269 272 276 281 284 282 278 278 277 275 274 274 274 274 274 276 276 276 274 274 275 275 275 276 277 276 275 276
263 261 262 264 266 268 270 271 271 268 266 263 262 262 261 263 262 261 263 266 267 269 272 278 281 284 284 280 278 279 278 276 276 276 275 275 274 275 275 274 273 273 273 274 275 276 275 275 275
263 262 262 263 266 268 269 269 272 272 270 268 265 265 264 263 264 264 265 269 270 271 274 278 282 285 285 283 279 278 278 278 278 277 277 277 277 276 276 274 272 270 271 272 273 273 273 274 274
261 261 262 264 269 271 271 271 272 273 272 269 267 265 265 265 265 265 267 269 271 274 276 279 282 285 286 284 282 280 279 278 278 278 278 277 278 277 276 273 272 271 271 272 272 272 273 272 273
260 260 262 265 268 272 274 273 273 273 272 272 269 267 266 265 264 264 266 268 271 274 276 278 281 284 285 285 282 280 281 280 280 281 280 280 279 279 277 274 273 271 270 270 270 271 271 272 273
261 263 265 268 271 274 275 274 274 273 274 273 271 269 268 266 265 265 267 270 272 275 278 278 281 282 285 286 283 280 281 282 282 282 283 283 281 279 278 277 274 272 270 270 271 270 270 271 272
Height
5868 5868 5869 5871 5872 5873 5872 5873 5873 5873 5873 5873 5873 5874 5874 5875 5876 5878 5876 5875 5875 5875 5875 5876 5876 5876 5876 5877 5877 5877 5877 5877 5877 5877 5877 5877 5877 5877 5877 5877 5876 5876 5876 5876 5876 5876 5877 5877 5877
5867 5868 5870 5870 5871 5871 5872 5872 5872 5872 5873 5873 5873 5873 5873 5874 5874 5874 5874 5874 5874 5874 5875 5875 5875 5876 5876 5876 5876 5876 5876 5877 5877 5877 5877 5877 5877 5877 5876 5876 5876 5876 5876 5876 5876 5876 5876 5876 5876
5867 5868 5869 5870 5870 5871 5871 5871 5871 5871 5871 5872 5872 5872 5873 5873 5873 5873 5873 5873 5874 5874 5874 5874 5874 5875 5875 5875 5875 5875 5875 5876 5876 5876 5876 5876 5876 5876 5876 5875 5875 5875 5875 5875 5875 5875 5875 5875 5875
5866 5868 5869 5869 5869 5869 5869 5870 5870 5870 5870 5870 5871 5872 5872 5872 5872 5872 5872 5873 5873 5873 5873 5873 5873 5874 5874 5874 5874 5874 5875 5875 5875 5875 5875 5875 5875 5875 5875 5875 5874 5874 5874 5874 5874 5874 5874 5874 5874
5865 5867 5867 5867 5867 5868 5868 5868 5868 5869 5869 5869 5870 5870 5870 5871 5871 5871 5871 5871 5872 5872 5872 5872 5872 5873 5873 5873 5873 5873 5873 5873 5874 5874 5874 5874 5874 5874 5873 5873 5873 5873 5873 5873 5873 5873 5873 5873 5873
5865 5865 5866 5866 5866 5867 5867 5867 5867 5867 5868 5868 5869 5869 5869 5869 5870 5870 5870 5870 5870 5871 5871 5871 5871 5871 5871 5872 5872 5871 5872 5872 5872 5872 5872 5872 5872 5872 5872 5872 5872 5872 5872 5872 5871 5871 5871 5871 5871
5864 5864 5865 5865 5865 5866 5866 5866 5866 5866 5866 5867 5867 5868 5868 5868 5869 5869 5869 5869 5869 5869 5869 5869 5870 5870 5870 5870 5870 5870 5870 5870 5870 5871 5871 5871 5871 5871 5871 5871 5870 5870 5870 5870 5870 5869 5869 5870 5870
5862 5864 5863 5864 5864 5864 5864 5864 5864 5865 5865 5866 5866 5866 5867 5867 5867 5867 5868 5868 5868 5868 5868 5868 5868 5868 5869 5869 5869 5869 5869 5869 5869 5869 5869 5869 5869 5869 5869 5869 5868 5868 5868 5868 5868 5868 5867 5867 5867
5861 5863 5862 5862 5862 5863 5863 5863 5863 5863 5864 5864 5864 5865 5865 5866 5866 5866 5866 5867 5867 5867 5867 5867 5867 5867 5867 5867 5867 5867 5867 5867 5867 5867 5866 5866 5866 5866 5866 5866 5866 5866 5866 5866 5866 5866 5865 5865 5865
5859 5860 5860 5860 5861 5861 5861 5861 5861 5862 5862 5863 5863 5863 5863 5864 5864 5865 5865 5865 5865 5865 5865 5866 5866 5866 5866 5866 5866 5866 5865 5865 5865 5865 5864 5864 5864 5864 5863 5864 5864 5864 5864 5864 5864 5863 5863 5863 5863
5857 5858 5858 5858 5858 5859 5859 5859 5860 5860 5861 5861 5861 5862 5862 5862 5863 5863 5863 5864 5864 5864 5864 5864 5864 5864 5864 5864 5864 5864 5864 5864 5863 5863 5863 5862 5862 5861 5861 5861 5861 5861 5861 5861 5861 5861 5861 5860 5860
5856 5856 5856 5856 5856 5857 5857 5858 5858 5858 5859 5859 5859 5860 5860 5860 5861 5861 5862 5862 5862 5862 5862 5862 5863 5863 5862 5862 5862 5862 5862 5862 5862 5861 5861 5860 5860 5860 5859 5859 5859 5858 5858 5858 5858 5858 5858 5857 5857
5854 5854 5854 5854 5854 5855 5856 5856 5856 5857 5857 5857 5858 5858 5858 5859 5859 5859 5860 5860 5860 5861 5861 5861 5861 5861 5861 5860 5860 5860 5860 5860 5860 5859 5859 5858 5858 5858 5857 5857 5856 5856 5856 5855 5855 5855 5854 5854 5854
5852 5852 5852 5852 5853 5853 5854 5854 5855 5855 5855 5855 5856 5856 5857 5857 5857 5858 5858 5858 5859 5859 5859 5859 5859 5859 5859 5858 5858 5858 5858 5858 5857 5857 5856 5856 5856 5855 5855 5855 5854 5854 5853 5853 5852 5852 5851 5850 5850
5850 5850 5851 5851 5851 5851 5852 5853 5853 5853 5853 5853 5854 5854 5855 5855 5855 5856 5856 5856 5857 5857 5857 5857 5857 5857 5857 5856 5856 5856 5856 5855 5855 5854 5854 5854 5853 5853 5852 5852 5852 5851 5850 5850 5849 5848 5848 5847 5847
5848 5849 5849 5849 5849 5849 5851 5851 5850 5850 5851 5851 5852 5852 5852 5853 5853 5854 5854 5854 5854 5855 5855 5855 5855 5855 5855 5854 5854 5853 5853 5853 5852 5852 5851 5851 5850 5850 5850 5849 5849 5848 5847 5846 5846 5845 5844 5843 5843
5846 5847 5847 5847 5847 5847 5848 5848 5848 5848 5849 5849 5849 5850 5850 5851 5851 5851 5851 5852 5852 5852 5853 5853 5853 5853 5852 5852 5851 5851 5850 5850 5849 5849 5848 5848 5847 5847 5846 5846 5845 5844 5844 5843 5842 5841 5840 5839 5838
5844 5844 5844 5845 5844 5845 5845 5845 5845 5845 5846 5846 5846 5847 5848 5848 5848 5849 5849 5850 5850 5850 5850 5850 5850 5850 5850 5849 5849 5848 5847 5846 5846 5845 5845 5844 5844 5843 5843 5842 5841 5841 5840 5839 5838 5837 5836 5835 5834
5841 5842 5842 5842 5842 5842 5842 5843 5842 5842 5843 5843 5843 5844 5845 5845 5846 5846 5847 5847 5847 5847 5847 5847 5847 5847 5846 5846 5845 5844 5844 5843 5842 5841 5841 5840 5840 5839 5839 5838 5837 5837 5836 5835 5834 5833 5831 5830 5829
5838 5839 5840 5840 5839 5839 5839 5840 5839 5839 5840 5840 5840 5841 5842 5842 5843 5843 5844 5844 5844 5844 5844 5844 5844 5843 5843 5842 5841 5840 5840 5839 5838 5837 5836 5836 5835 5835 5834 5834 5833 5832 5832 5830 5829 5828 5827 5826 5825
5835 5836 5837 5837 5836 5836 5837 5837 5836 5836 5836 5837 5837 5838 5838 5839 5840 5840 5840 5840 5841 5841 5841 5841 5840 5839 5838 5837 5837 5836 5835 5834 5834 5833 5832 5831 5831 5830 5830 5829 5828 5828 5827 5826 5825 5824 5822 5821 5821
5833 5833 5833 5834 5834 5834 5834 5834 5833 5833 5833 5833 5834 5834 5835 5836 5836 5837 5837 5837 5837 5838 5837 5837 5836 5835 5834 5833 5832 5831 5831 5830 5829 5829 5828 5827 5826 5825 5825 5824 5823 5823 5822 5821 5820 5819 5818 5817 5816
5830 5830 5830 5830 5830 5830 5830 5831 5831 5830 5830 5830 5830 5831 5831 5832 5833 5833 5833 5834 5834 5834 5833 5833 5832 5831 5830 5829 5828 5827 5826 5826 5825 5824 5823 5823 5822 5821 5820 5819 5818 5818 5817 5816 5815 5814 5813 5813 5812
5827 5827 5827 5827 5827 5828 5828 5828 5827 5827 5827 5827 5827 5827 5828 5828 5829 5830 5830 5830 5830 5830 5830 5829 5828 5827 5826 5825 5823 5823 5822 5821 5820 5819 5818 5817 5817 5816 5815 5814 5813 5812 5812 5811 5810 5809 5808 5807 5807
5823 5824 5824 5824 5824 5824 5824 5824 5824 5823 5823 5823 5823 5823 5824 5824 5825 5825 5826 5826 5826 5826 5825 5825 5824 5823 5821 5820 5819 5818 5817 5815 5814 5814 5813 5812 5811 5810 5809 5809 5808 5807 5806 5806 5805 5804 5803 5802 5802
5819 5821 5822 5822 5821 5821 5820 5820 5820 5819 5819 5819 5819 5819 5819 5820 5820 5821 5821 5821 5821 5821 5821 5820 5819 5818 5817 5815 5814 5813 5812 5810 5809 5808 5807 5806 5805 5805 5804 5803 5802 5801 5801 5800 5799 5799 5798 5797 5797
5816 5816 5817 5817 5817 5817 5816 5816 5816 5815 5815 5815 5815 5815 5815 5815 5815 5816 5816 5816 5816 5816 5816 5815 5814 5813 5812 5810 5809 5807 5806 5805 5804 5802 5801 5800 5800 5799 5798 5797 5796 5795 5795 5794 5794 5793 5792 5792 5791
5812 5812 5812 5813 5812 5813 5813 5812 5812 5810 5810 5810 5809 5809 5810 5810 5810 5811 5811 5811 5811 5811 5811 5810 5809 5808 5806 5805 5803 5802 5801 5799 5798 5797 5796 5794 5793 5792 5791 5790 5789 5789 5788 5788 5787 5787 5786 5786 5785
5807 5808 5808 5808 5808 5808 5808 5810 5807 5806 5805 5805 5804 5804 5804 5805 5805 5806 5806 5806 5806 5806 5805 5804 5803 5802 5801 5799 5798 5796 5795 5794 5792 5790 5789 5788 5786 5785 5784 5783 5782 5782 5781 5781 5781 5780 5780 5779 5779
5802 5803 5803 5803 5803 5802 5802 5805 5801 5800 5799 5799 5799 5799 5799 5799 5799 5800 5800 5800 5800 5800 5800 5799 5798 5797 5795 5793 5792 5790 5789 5787 5786 5784 5782 5781 5779 5778 5777 5776 5775 5775 5774 5774 5774 5773 5773 5773 5772